Weather Roundup
Issued by NWS Springfield, MO

Home | Current Version | Previous Version | Text Only | Print | Product List | Glossary On
Versions: 1 2 3 4 5 6 7 8 9 10 11 12 13 14 15 16 17 18 19 20 21 22 23 24 25 26 27 28 29 30 31 32 33 34 35 36 37 38 39 40 41 42 43 44 45 46 47 48 49 50
000
NZUS99 KSGF 020607
HRRSGF

HOURLY WEATHER
NATIONAL WEATHER SERVICE SPRINGFIELD MO
1200 AM CST MON MAR 02 2015

......SGF CWA......

CITY           SKY/WX    TMP DP  RH WIND       PRES   REMARKS
SPRINGFIELD    PTCLDY    25  20  81 NE3       30.45F
6HR MIN TEMP:  23; 6HR MAX TEMP:  30;

JOPLIN         PTCLDY    24  19  81 E3        30.49S
6HR MIN TEMP:  24; 6HR MAX TEMP:  30;

WEST PLAINS    CLOUDY    29  23  78 N8        30.45R WCI  21
6HR MIN TEMP:  29; 6HR MAX TEMP:  34;

ROLLA          CLEAR     18  15  88 N5        30.45R WCI  11
6HR MIN TEMP:  11; 6HR MAX TEMP:  28;

OSAGE BEACH    PTCLDY    18  16  93 CALM      30.48S

......SURROUNDING SGF CWA......

CITY           SKY/WX    TMP DP  RH WIND       PRES   REMARKS
CHANUTE        PTCLDY    20  17  88 CALM      30.48F
PARSONS        PTCLDY    18  16  92 CALM      30.50S
COFFEYVILLE    PTCLDY    22  19  89 N3        30.50S
EMPORIA        PTCLDY    20  17  88 W3        30.48R
GROVE OK       PTCLDY    30  27  86 CALM      30.50S
ROGERS AR      CLOUDY    28  25  88 NE10      30.46R WCI  19
SILOAM SPRINGS CLOUDY    28  21  74 CALM      30.46S
HARRISON AR    CLOUDY    30  27  88 N9        30.44R WCI  22
NEAR YELLVILLE CLOUDY    34  27  75 N8        30.45S WCI  27

......KANSAS AND MISSOURI......

CITY           SKY/WX    TMP DP  RH WIND       PRES   REMARKS
KANSAS CTY INT PTCLDY    28  19  69 W5        30.49R WCI  23
DOWNTOWN KC    PTCLDY    26  21  81 CALM      30.51R
COLUMBIA       PTCLDY    18  16  92 CALM      30.49R FOG
SEDALIA        PTCLDY    21  17  84 SW7       30.50S WCI  12
ST JOSEPH      MOCLDY    25  21  85 CALM      30.51R
ST LOUIS       PTCLDY    22  16  78 CALM      30.50R
SPIRIT OF STL  PTCLDY    14  12  92 CALM      30.50R FOG
KIRKSVILLE     CLOUDY    21  18  88 W3        30.49R
WICHITA        PTCLDY    20  16  84 NW5       30.47S FOG     WCI  13
TOPEKA         PTCLDY    23  19  85 CALM      30.50R
OLATHE         PTCLDY    23  20  88 CALM      30.48R

......TENNESSEE......

CITY           SKY/WX    TMP DP  RH WIND       PRES   REMARKS
MEMPHIS        CLOUDY    38  35  89 NE10      30.39S WCI  31
NASHVILLE      LGT RAIN  39  37  93 N10       30.38R FOG     WCI  32

......ARKANSAS.......

CITY           SKY/WX    TMP DP  RH WIND       PRES   REMARKS
FAYETTEVILLE   CLOUDY    30  29  96 VRB7      30.44R FOG     WCI  23
FT SMITH       CLOUDY    36  32  85 N3        30.43F
LITTLE ROCK    CLOUDY    40  35  83 N8        30.42S WCI  34

......OKLAHOMA.......

CITY           SKY/WX    TMP DP  RH WIND       PRES   REMARKS
TULSA          MOCLDY    30  24  78 N8        30.49S WCI  22
PONCA CITY     CLEAR     21  18  88 CALM      30.49S FOG
MCALESTER      CLOUDY    33  28  81 N10       30.45F WCI  25
OKLAHOMA CITY  CLOUDY    31  22  69 N7        30.45F WCI  24

......IOWA............

CITY           SKY/WX    TMP DP  RH WIND       PRES   REMARKS
DES MOINES     PTCLDY    21  13  71 NW6       30.47R WCI  13
QUAD CITIES    PTCLDY     9   4  80 SW3       30.44R

......ILLINOIS........

CITY           SKY/WX    TMP DP  RH WIND       PRES   REMARKS
QUINCY         MOCLDY    23  17  78 W5        30.47S WCI  17
CHICAGO        PTCLDY    19   8  62 W13       30.36R WCI   6




USA.gov is the U.S. government's official web portal to all federal, state and local government web resources and services.